Flag for Denmark Weather past 2 weeks in Vejle, Denmark

Now
41 °F

Quite cool.


Feels Like: 37 °F
Forecast: 42 / 65 °F
Wind: 6 mph from North

Location: Billund Lufthavn

Current Time: Apr 20, 2015 at 3:16:05 AM

Latest Report: Apr 20, 2015 at 2:20 AM


Visibility: N/A

Pressure: 30.33 "Hg

Humidity: 76%

Dew point: 34 °F

Location of VejleLocation

Historic Weather in Vejle — Graph

°F

Vejle temperature yesterday

Maximum temperature yesterday: 57 °F (at 2:20 PM)
Minimum temperature yesterday: 41 °F (at 6:50 AM)
Average temperature yesterday: 49 °F

Past Weeks' High & Low Weather Summary

 TemperatureHumidityPressure
High68 °F (Apr 11, 1:20 PM)100% (Apr 5, 2:50 AM)30.51 "Hg (Apr 5, 2:50 AM)
Low25 °F (Apr 5, 6:50 AM)30% (Apr 6, 12:50 PM)29.74 "Hg (Apr 15, 2:20 PM)
Average45 °F76%30.17 "Hg
* Reported Apr 5 2:20 AM — Apr 20 2:20 AM, Vejle, Weather by CustomWeather, © 2015

Note: Actual official high and low records may vary slightly from our data, if they occured in-between our weather recording intervals... More about our weather records

Advertising

Vejle weather history for previous 24 hours

 ConditionsComfort  
Time TempWeatherWind HumidityBarometerVisibility
2:20 AM
Mon, Apr 20
41 °FQuite cool.6 mph76%30.33 "HgN/A
1:50 AM41 °FQuite cool.6 mph81%30.33 "HgN/A
1:20 AM41 °FQuite cool.6 mph81%30.30 "HgN/A
12:50 AM41 °FPassing clouds.5 mph81%30.30 "HgN/A
12:20 AM43 °FQuite cool.2 mph76%30.30 "HgN/A
11:50 PM
Sun, Apr 19
45 °FQuite cool.3 mph71%30.30 "HgN/A
11:20 PM45 °FQuite cool.7 mph71%30.30 "HgN/A
10:50 PM46 °FCool.6 mph71%30.30 "HgN/A
10:20 PM48 °FCool.6 mph66%30.30 "HgN/A
9:50 PM45 °FQuite cool.2 mph71%30.30 "HgN/A
9:20 PM46 °FSunny.2 mph71%30.27 "Hg10 mi
8:50 PM50 °FSunny.No wind58%30.27 "Hg10 mi
8:20 PM55 °FSunny.1 mph44%30.27 "Hg10 mi
7:50 PM55 °FSunny.3 mph44%30.27 "Hg10 mi
7:20 PM55 °FSunny.3 mph44%30.27 "Hg10 mi
6:50 PM55 °FSunny.3 mph47%30.27 "Hg10 mi
6:20 PM57 °FSunny.3 mph41%30.27 "Hg10 mi
5:50 PM57 °FSunny.3 mph41%30.27 "Hg10 mi
5:20 PM57 °FPassing clouds.5 mph39%30.27 "HgN/A
4:50 PM57 °FPassing clouds.6 mph36%30.27 "HgN/A
4:20 PM57 °FPassing clouds.7 mph39%30.27 "HgN/A
3:50 PM57 °FPassing clouds.9 mph41%30.27 "HgN/A
3:20 PM57 °FPassing clouds.9 mph44%30.27 "HgN/A
2:50 PM57 °FPassing clouds.8 mph44%30.27 "HgN/A
2:20 PM57 °FPassing clouds.13 mph44%30.27 "HgN/A
1:50 PM55 °FPassing clouds.10 mph47%30.27 "HgN/A
1:20 PM55 °FPassing clouds.14 mph47%30.27 "HgN/A
12:50 PM54 °FPassing clouds.13 mph58%30.27 "HgN/A
12:20 PM54 °FPassing clouds.15 mph58%30.27 "HgN/A
11:50 AM54 °FPassing clouds.13 mph63%30.24 "HgN/A
11:20 AM52 °FPassing clouds.8 mph62%30.24 "HgN/A
10:50 AM50 °FPassing clouds.9 mph71%30.24 "HgN/A
10:20 AM48 °FPassing clouds.10 mph71%30.24 "HgN/A
9:50 AM46 °FPartly sunny.12 mph76%30.21 "HgN/A
9:20 AM45 °FLow clouds.10 mph87%30.21 "HgN/A
8:50 AM45 °FPartly sunny.10 mph87%30.21 "HgN/A
8:20 AM43 °FPartly sunny.12 mph87%30.21 "HgN/A
7:50 AM43 °FPartly sunny.10 mph87%30.18 "HgN/A
7:20 AM43 °FPartly sunny.7 mph87%30.18 "HgN/A
6:50 AM41 °FPassing clouds.7 mph93%30.18 "HgN/A
6:20 AM43 °FOvercast.8 mph87%30.15 "HgN/A
5:20 AM43 °FOvercast.7 mph81%30.15 "HgN/A
4:50 AM43 °FPassing clouds.7 mph87%30.12 "HgN/A
4:20 AM43 °FPassing clouds.10 mph87%30.12 "HgN/A
3:50 AM43 °FOvercast.6 mph87%30.15 "HgN/A
3:20 AM43 °FOvercast.6 mph87%30.15 "HgN/A
Weather by CustomWeather, © 2015

See weather overviewHow to use our weather pages